Temp
48 43 41 45 46 46 44 41 40 45 52 46 46 46 46 47 47 42 42 42 43 43 46 47 47 46 46 47 47 47 48 48 50 48 48 50 51 54 55 56 56 56 57 56
44 39 49 49 48 46 43 41 40 45 50 46 45 45 42 43 42 43 41 41 41 42 43 44 45 45 44 44 45 46 46 46 47 48 46 47 47 48 47 50 50 50 50 52
41 48 51 49 46 45 42 41 40 43 44 43 40 39 39 42 43 43 42 42 42 40 40 41 42 41 42 41 42 44 45 46 45 46 47 47 46 45 46 46 46 46 48 49
43 50 49 46 45 46 40 46 45 42 38 34 41 30 36 38 38 39 39 37 38 38 40 41 41 40 40 39 41 43 44 44 45 44 44 42 40 39 40 41 42 43 44 45
44 44 43 43 46 48 43 46 44 41 36 32 34 31 35 38 35 35 36 37 37 38 39 39 39 40 40 39 38 39 42 42 42 42 42 41 39 39 39 40 40 40 42 42
44 47 47 47 47 47 47 43 41 36 34 26 34 33 33 35 39 36 36 37 38 38 38 38 39 40 38 38 38 38 40 39 40 40 40 39 38 39 38 38 37 38 38 39
40 43 45 47 43 43 42 37 29 26 24 26 35 31 35 36 39 39 36 36 36 37 37 37 37 37 38 37 37 40 38 38 38 38 38 37 36 37 37 37 36 36 36 37
35 34 43 46 45 42 38 38 27 18 21 25 32 29 33 36 38 39 38 37 38 37 38 38 39 38 39 38 38 37 37 37 37 37 37 37 38 38 37 36 37 36 36 36
34 35 42 43 44 46 39 34 39 29 21 20 29 30 35 36 35 36 35 36 35 36 38 39 40 39 40 40 39 40 38 37 37 37 40 38 39 38 37 37 36 36 36 39
41 33 40 41 43 41 39 43 32 29 16 17 26 28 29 30 32 34 34 34 35 37 37 39 39 40 39 39 39 38 38 37 36 36 36 37 37 38 38 37 36 36 36 35
42 39 35 39 37 37 37 34 34 34 26 20 17 26 36 36 35 34 35 37 36 37 39 40 39 39 38 37 36 38 38 37 37 36 35 35 35 35 35 34 34 34 34 34
41 34 24 34 37 38 38 37 36 25 23 28 26 29 38 39 38 38 38 38 37 37 37 36 37 36 36 36 36 36 35 35 36 35 34 34 34 32 32 32 32 32 32 34
42 31 18 26 34 34 33 33 34 32 29 21 20 24 37 37 37 37 36 36 37 36 34 35 34 34 34 34 34 34 34 34 34 33 32 32 31 31 30 31 31 32 31 30
45 32 29 29 30 32 28 30 33 30 18 26 24 28 30 34 35 36 35 34 33 33 33 32 32 32 33 34 33 32 33 33 32 31 30 29 29 29 29 29 29 29 29 29
38 27 26 30 31 30 30 28 30 28 29 23 28 29 36 35 34 35 34 31 31 32 32 31 32 32 32 32 32 32 33 32 31 30 29 29 29 29 28 27 28 28 28 29
33 21 24 17 30 30 27 30 29 30 31 28 31 29 38 32 30 28 31 31 31 32 33 34 34 34 34 33 32 33 30 29 29 27 28 29 29 30 29 29 29 29 29 29
29 23 16 14 23 22 15 22 29 31 29 29 24 30 27 28 30 28 29 30 32 32 33 33 34 34 33 32 31 27 27 27 27 27 26 26 26 25 25 25 24 24 23 24
27 22 20 10 8 3 26 27 27 28 30 26 23 19 22 25 28 29 29 30 31 33 33 33 32 30 30 28 27 27 26 25 24 21 20 21 21 19 21 20 19 19 19 19
31 27 16 10 1 15 26 27 24 22 21 20 22 19 23 27 27 24 31 31 31 32 32 31 30 27 26 25 25 24 23 23 22 21 20 19 17 15 15 13 14 15 13 13
27 29 25 3 3 2 17 22 26 27 13 18 17 18 23 26 14 22 30 33 32 32 31 27 26 26 25 22 22 20 19 18 17 18 17 16 14 11 10 10 9 10 9 9
8 12 20 14 13 11 22 25 28 12 18 16 20 25 25 22 26 29 31 31 31 30 26 25 24 23 21 21 19 17 16 14 15 14 13 12 11 8 7 7 7 6 5 6
14 11 10 13 12 9 23 24 19 23 23 23 25 26 26 28 30 30 30 30 28 25 24 22 18 19 19 18 15 13 12 14 12 11 9 7 5 5 6 3 4 4 3 2
14 18 12 15 16 26 24 26 32 30 25 28 28 29 29 29 28 29 28 28 25 21 21 17 14 15 15 14 11 7 10 10 9 2 1 1 3 4 4 2 2 1 2 2
20 23 17 16 23 25 30 33 33 31 30 31 31 31 28 27 28 27 24 23 21 18 17 14 11 11 10 8 10 5 7 7 -5 -6 -1 3 3 2 2 4 3 1 1 1
24 23 18 17 25 28 31 32 34 32 31 29 28 29 29 26 26 25 21 18 18 17 15 12 10 10 7 7 4 -0 3 -1 -3 -0 2 2 3 2 2 3 2 3 5 6
25 25 21 19 31 31 33 34 33 31 30 29 28 23 25 26 24 21 17 17 15 12 10 9 7 5 2 -0 -0 -2 -4 -7 -6 -1 1 2 2 2 2 2 2 9 12 14
MSLP
1017.69 1018.29 1018.22 1017.94 1017.95 1017.93 1018.07 1018.18 1018.09 1017.26 1016.67 1016.74 1016.86 1017.31 1017.85 1018.18 1017.94 1019.33 1020.37 1021.03 1021.69 1021.81 1022.20 1022.01 1021.68 1021.10 1020.32 1019.51 1019.00 1018.92 1018.55 1018.75 1018.30 1018.15 1018.46 1018.83 1019.33 1019.38 1019.24 1019.10 1019.21 1019.10 1019.10 1019.19
1018.47 1018.32 1017.43 1017.57 1017.94 1018.19 1018.30 1018.25 1017.83 1017.40 1016.78 1016.97 1017.47 1018.11 1019.16 1019.48 1020.24 1020.85 1021.46 1022.04 1022.51 1022.61 1022.76 1022.90 1022.62 1022.10 1021.48 1021.25 1020.89 1020.45 1020.20 1020.02 1019.89 1019.88 1019.97 1019.94 1020.03 1020.57 1020.83 1020.46 1020.12 1020.16 1019.86 1019.69
1017.77 1017.18 1016.91 1017.58 1017.74 1018.03 1018.19 1018.15 1017.91 1017.64 1017.38 1017.39 1018.10 1018.89 1019.74 1020.83 1021.32 1021.75 1022.39 1022.96 1023.35 1023.46 1023.68 1023.73 1023.33 1023.05 1022.89 1022.60 1022.52 1022.09 1021.72 1021.33 1021.15 1021.09 1020.80 1020.64 1020.79 1021.17 1021.37 1021.72 1021.52 1021.22 1020.95 1020.73
1017.58 1016.62 1016.86 1017.27 1017.54 1017.75 1017.85 1017.28 1017.50 1018.05 1018.56 1018.82 1018.72 1019.72 1020.36 1021.18 1022.20 1022.76 1023.18 1023.89 1024.36 1024.48 1024.55 1024.44 1024.26 1024.09 1023.98 1024.06 1023.64 1023.34 1023.01 1022.73 1022.43 1022.14 1022.19 1022.67 1023.06 1023.38 1023.88 1023.62 1023.19 1022.54 1022.09 1021.83
1016.75 1016.47 1016.44 1016.64 1016.41 1016.95 1017.14 1017.01 1017.50 1018.13 1019.10 1019.77 1020.00 1020.88 1020.07 1021.52 1022.73 1023.69 1024.44 1024.46 1024.75 1025.29 1025.33 1025.20 1024.94 1025.12 1024.95 1024.71 1024.63 1024.39 1024.17 1023.70 1023.77 1023.68 1023.48 1023.49 1023.98 1024.44 1024.45 1024.10 1023.94 1023.67 1023.08 1022.74
1016.67 1016.30 1016.28 1016.03 1016.23 1016.61 1017.02 1017.83 1018.58 1019.43 1020.01 1020.22 1019.69 1020.73 1020.47 1021.35 1021.73 1023.60 1024.50 1025.03 1025.07 1025.16 1025.56 1025.58 1025.49 1025.52 1025.43 1025.34 1024.97 1024.98 1024.98 1025.05 1024.84 1024.57 1024.64 1024.64 1024.85 1024.79 1024.69 1024.72 1024.72 1024.57 1024.42 1024.09
1016.75 1016.34 1015.99 1016.02 1016.50 1016.98 1017.41 1018.64 1020.10 1021.07 1021.58 1020.82 1020.29 1021.16 1020.26 1020.93 1021.25 1022.02 1023.63 1024.77 1025.18 1025.28 1025.50 1025.63 1025.61 1025.60 1025.71 1025.54 1025.43 1025.32 1025.54 1025.81 1025.67 1025.53 1025.31 1025.45 1025.51 1025.57 1025.53 1025.48 1025.38 1025.25 1024.98 1024.71
1016.96 1016.64 1016.10 1016.03 1016.14 1016.57 1017.50 1018.43 1019.90 1021.09 1022.41 1021.68 1021.18 1021.17 1021.24 1021.97 1022.43 1023.03 1023.73 1024.38 1024.79 1025.09 1025.34 1025.59 1025.69 1025.82 1026.00 1025.94 1025.75 1025.72 1025.92 1026.10 1026.14 1026.06 1026.06 1025.94 1025.86 1025.94 1026.05 1026.11 1025.78 1025.60 1025.52 1025.29
1016.69 1016.52 1016.02 1016.02 1016.24 1016.57 1017.78 1018.66 1019.23 1020.88 1022.94 1022.75 1021.38 1021.42 1022.06 1022.87 1023.40 1023.70 1024.06 1024.40 1024.74 1025.06 1025.28 1025.39 1025.76 1025.91 1026.02 1026.36 1026.14 1026.27 1026.28 1026.23 1026.46 1026.31 1026.20 1026.37 1026.23 1026.17 1026.15 1026.23 1026.23 1025.94 1025.62 1025.17
1016.23 1016.81 1016.80 1016.78 1016.74 1017.28 1017.46 1018.18 1019.53 1021.21 1023.05 1022.83 1021.37 1021.14 1021.07 1022.67 1023.35 1023.87 1024.20 1024.28 1024.49 1024.67 1025.16 1025.45 1025.84 1026.02 1025.93 1026.24 1026.42 1026.51 1026.55 1026.48 1026.41 1026.51 1026.40 1026.49 1026.63 1026.40 1026.32 1026.28 1026.27 1026.28 1025.83 1025.45
1016.51 1017.10 1018.02 1017.58 1017.50 1017.75 1018.52 1018.76 1019.67 1020.83 1021.93 1022.39 1022.00 1020.35 1019.47 1020.69 1021.96 1023.10 1023.59 1023.64 1024.25 1024.70 1024.94 1025.31 1025.77 1026.09 1026.21 1026.54 1026.67 1026.77 1026.62 1026.70 1026.73 1026.97 1026.63 1026.72 1027.16 1026.72 1026.65 1026.52 1026.37 1026.35 1025.99 1025.52
1017.12 1018.14 1018.75 1018.54 1018.28 1018.34 1018.63 1018.97 1019.69 1021.12 1022.09 1022.30 1021.86 1019.99 1019.72 1020.10 1021.22 1022.11 1022.66 1023.25 1024.04 1024.53 1025.04 1025.41 1025.79 1026.23 1026.54 1026.64 1026.69 1026.72 1026.63 1026.66 1026.65 1026.47 1026.70 1026.95 1026.95 1026.86 1026.92 1027.00 1026.91 1026.38 1025.86 1025.30
1017.56 1018.97 1019.88 1019.99 1019.66 1019.31 1019.36 1019.78 1020.03 1020.97 1021.67 1021.87 1022.21 1020.51 1020.36 1020.67 1021.43 1021.93 1022.55 1023.14 1023.69 1024.39 1025.06 1025.59 1025.75 1026.14 1026.35 1026.44 1026.66 1026.66 1026.60 1026.53 1026.46 1026.52 1026.68 1026.78 1026.75 1026.74 1026.68 1026.55 1026.32 1025.96 1025.77 1025.51
1017.43 1018.82 1019.60 1019.98 1020.13 1020.28 1020.53 1020.57 1020.89 1021.27 1022.10 1022.07 1021.27 1020.84 1020.91 1021.22 1021.74 1022.21 1022.46 1023.02 1023.85 1024.42 1025.01 1025.66 1025.84 1026.08 1026.23 1026.36 1026.54 1026.52 1026.39 1026.26 1026.29 1026.47 1026.73 1026.88 1026.81 1026.69 1026.54 1026.30 1026.03 1025.74 1025.40 1025.05
1018.93 1019.88 1020.67 1021.04 1021.29 1021.14 1021.15 1021.06 1021.42 1021.71 1021.74 1021.91 1020.91 1021.32 1020.23 1021.27 1021.65 1021.82 1022.13 1023.09 1023.82 1024.47 1025.06 1025.45 1025.84 1025.99 1026.16 1026.25 1026.16 1026.21 1026.27 1026.22 1026.48 1026.66 1026.74 1026.71 1026.49 1026.31 1026.08 1025.79 1025.48 1025.24 1025.00 1024.54
1020.21 1021.06 1021.96 1022.98 1022.68 1022.61 1022.14 1021.10 1021.44 1021.62 1021.64 1021.68 1021.54 1020.90 1020.76 1021.37 1021.84 1022.36 1022.64 1023.01 1023.78 1024.49 1024.95 1025.38 1025.51 1025.76 1025.90 1026.07 1026.21 1026.31 1026.59 1026.66 1026.78 1026.86 1026.80 1026.62 1026.43 1026.21 1026.02 1025.76 1025.43 1025.06 1024.58 1024.06
1021.14 1022.26 1023.79 1024.80 1024.59 1024.21 1023.55 1020.47 1020.87 1020.73 1020.62 1021.14 1021.65 1020.76 1021.27 1021.74 1022.30 1022.66 1023.00 1023.36 1024.01 1024.50 1024.78 1025.04 1025.30 1025.42 1025.69 1026.02 1026.30 1026.64 1026.81 1026.90 1026.94 1026.92 1026.86 1026.74 1026.54 1026.32 1026.17 1025.96 1025.64 1025.14 1024.58 1023.92
1021.98 1023.22 1024.49 1026.38 1027.01 1025.49 1021.31 1020.58 1020.49 1020.69 1020.73 1021.26 1021.62 1021.69 1021.80 1022.10 1022.20 1022.73 1023.21 1023.62 1024.10 1024.32 1024.64 1024.78 1024.98 1025.46 1025.82 1026.24 1026.58 1026.86 1027.03 1027.16 1027.26 1027.30 1027.33 1027.16 1027.10 1027.03 1026.66 1026.26 1025.76 1025.13 1024.58 1023.85
1022.04 1023.26 1025.52 1027.13 1027.17 1024.44 1021.70 1020.79 1020.83 1021.16 1021.03 1021.41 1021.81 1022.26 1022.18 1022.75 1023.17 1023.46 1023.19 1023.37 1023.71 1024.14 1024.24 1024.53 1024.87 1025.52 1026.09 1026.52 1026.93 1027.22 1027.39 1027.47 1027.51 1027.52 1027.49 1027.49 1027.51 1027.23 1026.88 1026.48 1025.89 1025.33 1024.69 1023.93
1023.30 1023.53 1024.54 1027.45 1026.98 1025.00 1022.07 1020.92 1020.55 1020.74 1021.59 1021.17 1021.55 1022.32 1022.67 1023.19 1023.75 1023.05 1022.77 1023.11 1023.43 1023.74 1024.20 1024.79 1025.34 1025.90 1026.49 1027.14 1027.48 1027.61 1027.69 1027.77 1027.79 1027.77 1027.73 1027.74 1027.61 1027.32 1026.86 1026.39 1025.87 1025.32 1024.78 1023.74
1024.78 1024.78 1024.44 1025.30 1025.47 1023.74 1021.46 1020.94 1020.87 1021.51 1021.57 1021.24 1021.82 1021.83 1022.37 1022.82 1022.12 1022.12 1022.36 1022.75 1023.09 1023.54 1024.43 1025.19 1025.81 1026.41 1027.01 1027.42 1027.71 1027.75 1027.91 1028.03 1028.10 1028.20 1028.13 1027.90 1027.66 1027.32 1026.85 1026.06 1025.56 1024.88 1024.13 1023.28
1023.45 1024.39 1024.35 1024.48 1024.08 1022.46 1020.54 1021.12 1021.14 1020.22 1020.58 1020.92 1021.35 1021.18 1021.56 1021.53 1021.66 1022.01 1022.15 1022.49 1023.18 1024.07 1025.02 1025.73 1026.44 1026.92 1027.36 1027.68 1027.88 1027.95 1028.08 1028.13 1028.30 1028.28 1028.17 1027.92 1027.57 1027.13 1026.46 1025.80 1024.95 1024.33 1023.58 1022.73
1022.27 1021.29 1021.92 1021.96 1020.60 1019.37 1019.35 1018.84 1018.83 1019.10 1019.73 1020.35 1020.72 1020.65 1020.78 1021.16 1021.46 1021.61 1021.94 1022.45 1023.25 1024.22 1025.27 1026.11 1026.76 1027.17 1027.53 1027.79 1028.14 1028.27 1028.22 1028.29 1028.26 1028.31 1028.10 1027.61 1027.05 1026.43 1025.88 1025.26 1024.36 1023.75 1023.03 1022.19
1020.51 1020.12 1020.21 1020.42 1019.02 1018.67 1018.51 1018.20 1018.37 1018.69 1019.09 1019.28 1019.50 1019.72 1020.20 1020.79 1020.92 1021.28 1021.86 1022.64 1023.57 1024.51 1025.38 1026.32 1026.99 1027.41 1027.84 1028.15 1028.28 1028.47 1028.39 1028.33 1028.27 1028.27 1027.60 1026.87 1026.26 1025.61 1025.20 1024.58 1023.80 1023.19 1022.37 1021.47
1018.82 1019.01 1018.75 1018.77 1018.26 1018.15 1018.11 1017.56 1017.26 1017.96 1018.46 1018.79 1019.09 1019.34 1019.60 1020.19 1020.61 1021.12 1021.99 1022.87 1023.78 1024.77 1025.60 1026.40 1027.03 1027.58 1028.08 1028.39 1028.55 1028.39 1028.30 1028.16 1028.26 1027.76 1027.02 1026.28 1025.70 1025.05 1024.43 1023.77 1023.00 1022.32 1021.33 1020.44
1017.28 1016.59 1017.27 1017.09 1016.25 1016.43 1016.46 1016.05 1016.48 1017.45 1017.78 1018.06 1018.60 1019.07 1019.28 1019.72 1020.32 1021.23 1022.20 1023.09 1024.14 1025.14 1025.93 1026.61 1027.24 1027.70 1028.07 1028.33 1028.36 1028.29 1028.14 1027.96 1027.92 1027.42 1026.65 1025.95 1025.24 1024.55 1023.90 1023.06 1022.05 1020.89 1019.97 1018.70
Wind_Speed
1 4 7 12 10 4 3 3 6 5 7 3 5 6 8 10 10 10 9 10 11 13 10 11 13 13 14 17 18 17 18 15 11 6 4 5 4 5 8 8 10 7 5 2
4 6 13 3 5 7 5 6 7 6 6 0 5 8 6 12 7 8 9 9 9 9 11 12 12 14 16 15 15 16 16 15 11 8 4 4 3 4 4 7 10 13 9 6
9 7 4 7 5 5 5 6 5 8 3 3 2 6 2 4 7 10 10 8 8 8 9 9 12 13 13 15 14 15 14 16 14 12 8 6 5 5 8 11 9 10 12 11
6 7 6 5 6 6 7 5 7 2 3 4 3 5 4 3 4 6 7 7 7 7 7 9 11 13 13 10 10 13 14 15 14 14 12 14 9 7 4 5 5 8 12 12
8 4 5 6 9 9 8 3 5 3 3 2 3 2 6 6 3 4 5 7 7 6 7 8 9 9 8 8 8 8 11 13 12 13 12 9 9 5 4 6 10 12 11 11
6 1 4 7 2 5 4 3 6 5 3 1 8 7 5 6 7 7 6 5 6 7 6 6 6 6 7 7 7 8 11 12 10 11 11 11 11 8 8 8 8 6 5 7
1 5 1 2 4 2 4 6 3 4 2 6 4 3 4 7 4 16 15 8 7 6 6 6 6 6 6 7 7 7 9 11 8 9 10 9 8 8 9 8 6 8 7 6
5 4 8 4 7 8 6 8 7 7 4 4 4 6 3 4 9 12 10 9 7 7 6 6 6 6 6 6 7 8 8 8 8 8 8 7 8 6 5 5 6 5 6 6
6 5 1 1 1 5 4 4 2 6 2 3 5 2 2 4 6 7 9 7 7 7 6 7 6 6 5 5 6 6 6 6 6 6 6 6 6 6 6 7 5 4 5 7
4 1 1 1 2 3 4 5 4 3 2 6 4 5 5 10 11 8 7 8 8 7 7 6 5 5 5 5 4 5 5 6 5 7 6 5 6 6 5 5 6 6 6 5
5 4 3 2 4 7 1 1 3 3 5 6 2 6 0 13 15 14 11 11 8 8 8 7 6 5 5 4 4 3 3 2 1 2 2 4 5 7 7 6 6 6 7 8
1 5 4 6 1 2 1 5 5 6 5 5 1 9 5 13 16 14 11 9 8 7 7 7 7 6 6 5 4 4 4 4 5 4 4 5 4 4 5 6 7 7 8 10
7 1 2 8 5 1 4 3 3 4 3 7 6 7 3 6 7 7 7 8 7 7 7 6 6 7 7 6 6 6 5 6 5 4 5 5 6 6 7 7 7 7 7 8
4 4 9 12 5 3 4 3 4 5 3 2 7 5 2 5 8 6 6 7 8 8 8 7 6 6 6 6 6 6 6 6 6 5 5 6 6 6 6 7 8 8 9 10
4 7 3 2 3 3 5 6 9 8 6 7 6 10 13 11 8 8 7 7 7 6 7 7 7 7 7 6 6 5 6 6 4 5 5 6 6 6 6 7 7 7 7 9
2 3 3 2 4 5 6 13 9 11 13 11 14 21 11 5 4 3 7 9 7 6 6 7 7 6 6 5 4 3 3 5 4 5 5 5 7 9 10 11 12 13 14 14
5 6 4 6 4 5 10 9 16 11 9 9 12 15 2 5 7 8 7 7 7 6 6 7 7 7 4 2 2 4 4 4 5 5 6 8 9 10 10 11 12 14 15 17
6 5 3 4 3 3 7 3 3 10 11 8 2 4 4 4 2 6 6 7 7 7 7 7 6 3 4 3 4 3 4 3 4 4 5 6 6 8 12 15 15 16 15 16
2 5 3 4 5 8 13 7 9 9 9 7 8 3 2 5 4 2 7 7 8 9 8 5 4 4 5 5 5 4 4 4 5 7 6 6 8 11 12 13 15 15 16 17
2 3 6 4 5 10 8 4 3 5 6 6 7 5 6 7 3 7 8 6 8 7 4 7 6 4 5 3 2 1 2 2 6 5 8 10 10 10 13 14 15 14 13 16
3 0 12 8 7 10 9 5 1 6 8 4 6 6 8 6 8 5 7 5 5 5 8 7 5 5 5 3 1 1 2 4 3 6 8 9 10 12 13 14 12 14 14 16
9 10 6 3 5 11 8 6 8 7 0 5 6 5 7 8 5 7 7 6 7 7 6 5 5 4 4 3 1 2 4 4 6 6 8 10 10 9 10 13 13 13 14 15
3 9 9 12 9 3 8 7 10 6 6 6 7 7 9 9 7 8 7 6 7 7 6 4 4 4 3 3 1 3 4 6 6 4 8 9 9 9 10 11 13 11 12 12
5 4 4 5 6 7 10 9 5 8 8 8 8 9 8 9 9 9 5 7 7 6 5 4 4 3 3 2 3 4 6 6 4 7 8 9 9 10 10 8 9 10 11 11
6 6 5 3 4 1 8 11 12 10 10 8 7 9 11 9 10 7 6 7 6 5 4 3 2 2 3 2 4 5 5 4 6 7 9 10 8 9 10 9 10 10 12 14
7 8 5 8 12 9 11 9 12 13 11 11 10 5 7 9 9 7 6 5 5 5 4 3 2 1 3 3 5 5 5 4 5 9 8 8 9 9 9 9 11 22 26 29
Wind_Direction
212 112 203 207 201 173 194 210 238 259 264 270 263 277 3 5 35 89 81 78 70 60 46 33 29 28 32 34 37 33 36 20 26 17 24 35 34 26 42 45 34 24 3 345
53 224 232 185 172 214 234 240 247 260 244 256 288 306 42 35 46 69 89 75 70 71 48 37 33 34 37 37 37 38 39 35 32 29 5 34 52 38 29 23 30 21 10 7
172 221 172 175 208 203 221 213 230 231 332 287 350 295 62 46 68 76 63 72 64 64 62 44 42 39 39 36 31 38 38 42 38 33 32 30 34 27 23 13 13 16 22 22
226 241 191 178 223 174 268 210 214 192 81 238 52 279 207 165 84 69 79 61 57 54 49 49 46 44 43 32 34 39 40 39 39 38 48 51 57 53 4 1 359 11 20 30
239 203 171 192 223 162 220 151 152 159 169 42 308 116 269 135 166 130 86 82 74 52 54 56 54 47 40 35 32 31 46 48 42 44 49 59 59 40 15 26 20 11 13 23
233 240 180 204 138 175 133 56 36 46 99 280 211 161 251 193 188 146 127 114 103 98 82 67 53 52 48 32 43 40 43 41 37 47 46 50 48 41 40 29 26 16 3 6
229 228 252 161 122 44 99 80 319 341 351 232 148 142 257 316 142 152 144 137 126 119 106 94 79 68 60 51 46 58 51 43 31 41 48 47 47 42 40 30 26 16 10 5
183 285 167 191 193 180 177 159 164 208 213 248 299 244 275 46 97 119 129 136 134 128 123 114 106 94 79 67 63 56 47 44 31 35 33 35 40 41 35 20 16 20 9 349
175 267 120 139 163 135 182 177 190 100 36 47 228 77 94 105 115 130 140 145 156 156 151 131 118 106 105 96 72 63 61 55 39 34 33 27 30 33 22 7 358 352 346 346
221 242 347 173 119 47 150 162 79 10 224 252 279 252 203 190 179 174 172 177 185 167 149 140 133 120 78 77 72 61 51 47 36 21 22 16 3 7 4 354 343 332 324 319
153 145 251 125 195 188 52 218 81 130 142 190 259 255 11 183 177 179 197 200 180 171 165 154 135 127 125 127 142 150 137 156 191 223 5 1 326 340 337 335 328 315 310 313
5 120 181 200 355 339 300 212 164 154 244 243 168 261 333 167 174 183 198 189 178 173 165 152 158 170 178 186 187 196 202 211 228 223 216 232 256 273 284 279 276 292 305 311
178 205 22 344 344 20 202 200 139 113 107 212 170 259 58 136 163 203 188 182 170 163 170 173 174 192 198 209 218 223 227 234 236 230 237 260 266 268 266 273 277 275 269 271
104 171 174 223 191 145 169 179 179 140 136 173 231 292 159 222 203 217 206 178 174 176 180 193 207 220 223 229 235 247 259 251 254 245 252 264 273 267 261 259 257 259 259 263
154 201 130 208 141 171 212 181 193 197 193 191 252 227 241 207 226 244 222 161 168 180 192 204 215 226 236 252 270 280 277 293 333 323 321 305 298 289 288 288 291 287 280 282
355 202 100 309 252 244 269 260 183 218 236 245 253 264 260 146 153 163 188 161 160 179 198 210 211 212 225 227 238 269 350 30 18 348 321 314 319 322 320 315 312 311 309 306
142 132 92 260 12 45 304 232 219 220 198 206 221 241 130 178 171 175 157 152 175 197 213 217 219 231 240 251 62 70 35 358 349 336 330 331 326 320 324 325 318 311 307 304
136 108 77 187 38 244 248 289 223 227 249 199 205 233 197 185 171 146 178 172 187 191 208 224 224 197 136 105 70 39 21 2 333 320 311 313 339 326 318 313 309 307 305 303
161 134 148 173 201 308 288 231 188 172 264 194 193 228 175 114 71 271 208 178 185 208 225 223 153 132 115 81 49 15 331 324 324 313 316 328 321 309 307 303 301 303 302 299
185 295 188 127 173 215 246 283 161 109 290 221 152 190 159 139 149 233 200 195 228 238 195 141 133 122 121 110 102 265 276 304 301 322 320 315 309 303 301 299 299 296 291 291
91 232 214 208 227 279 242 205 194 104 240 178 178 188 165 187 202 186 178 219 218 190 143 126 130 140 142 135 121 321 315 285 320 313 302 302 302 299 295 292 294 294 292 291
162 161 201 177 217 257 169 80 162 208 282 178 198 199 187 213 213 215 225 237 189 163 134 117 126 144 150 131 97 325 287 315 303 297 298 293 288 282 289 289 291 292 292 291
226 188 181 186 203 218 208 182 212 165 163 200 189 206 199 204 224 229 234 225 170 156 143 126 135 159 160 111 123 267 305 305 303 282 283 277 279 281 284 287 291 296 293 291
256 155 211 93 223 214 206 227 200 191 205 203 204 206 193 213 224 231 211 166 156 159 151 137 135 160 200 193 309 270 295 305 284 276 285 293 297 295 285 284 289 290 288 287
196 140 170 266 283 238 253 230 231 213 220 229 222 218 222 204 234 211 182 163 158 156 134 124 135 162 204 227 260 271 289 288 294 295 302 302 293 294 293 289 290 283 279 278
183 200 184 229 227 220 240 223 215 218 220 220 223 225 227 198 205 170 160 151 147 152 139 134 140 228 246 257 279 271 268 256 283 306 306 301 301 297 295 297 296 292 295 297